Location: Krasnoyarskiy Pitomnik
(51.1333°N, 71.6167°E)
Time: 22:02:23
(UTC+00:00)

S-56A Canister/Altair - Visible Passes

Search period start: 12 April 2024 00:00
Search period end: 22 April 2024 00:00
Orbit: 638 x 2489 km, 38.9° (Epoch: 11 April)

Date Brightness Start Highest point End Pass type
(mag) Time Alt. Az. Time Alt. Az. Time Alt. Az.
12 Apr 9.6 15:24:58 10° SW 15:32:43 39° SSE 15:41:47 15° ESE visible
12 Apr 9.7 17:27:29 10° WSW 17:36:49 43° S 17:39:07 40° SSE visible
12 Apr 10.5 19:31:28 10° W 19:36:26 24° WSW 19:36:26 24° WSW visible
13 Apr 9.6 14:52:00 10° SW 14:59:08 36° SSE 15:09:12 10° E visible
13 Apr 9.7 16:54:13 10° WSW 17:02:59 43° S 17:07:02 34° SE visible
13 Apr 10.3 18:57:53 10° W 19:04:21 29° SW 19:04:21 29° SW visible
14 Apr 9.6 16:21:01 10° WSW 16:29:14 42° S 16:34:57 27° SE visible
14 Apr 10.1 18:24:23 10° W 18:32:16 33° SSW 18:32:16 33° SSW visible
15 Apr 9.5 15:47:53 10° WSW 15:55:33 41° S 16:02:52 20° ESE visible
15 Apr 9.9 17:50:59 10° WSW 17:59:41 34° SSW 18:00:11 34° SSW visible
15 Apr 11.0 19:56:22 10° WSW 19:57:31 12° WSW 19:57:31 12° WSW visible
16 Apr 9.5 15:14:48 10° WSW 15:21:55 39° S 15:30:47 14° ESE visible
16 Apr 9.9 17:17:39 10° WSW 17:25:54 35° SSW 17:28:07 33° S visible
16 Apr 10.8 19:22:30 10° WSW 19:25:27 16° WSW 19:25:27 16° WSW visible
17 Apr 9.5 14:41:47 10° SW 14:48:23 37° S 14:57:50 10° ESE visible
17 Apr 9.8 16:44:23 10° WSW 16:52:10 35° SSW 16:56:04 28° SSE visible
17 Apr 10.6 18:48:47 10° WSW 18:53:24 20° SW 18:53:24 20° SW visible
18 Apr 9.7 16:11:12 10° WSW 16:18:30 35° S 16:24:02 23° SE visible
18 Apr 10.4 18:15:12 10° WSW 18:21:22 22° SW 18:21:22 22° SW visible
19 Apr 9.6 15:38:03 10° WSW 15:44:53 35° S 15:52:01 17° SE visible
19 Apr 10.3 17:41:44 10° WSW 17:48:44 23° SSW 17:49:21 23° SSW visible
20 Apr 9.5 15:04:58 10° WSW 15:11:20 34° S 15:20:02 11° SE visible
20 Apr 10.2 17:08:21 10° WSW 17:15:04 24° SSW 17:17:22 22° S visible
21 Apr 10.1 16:35:03 10° WSW 16:41:27 25° SSW 16:45:25 20° S visible
